SEJ125 VOBL-VOMM

Flight info

Callsign SEJ125
Flight time N/A
Altitude 19000
Route BIA W116 MMV
Aircraft DH8D/M-SDE2E3FGRY/H

Departure

Time 2026-04-29 08:50
Airport Kempegowda International Airport Bengaluru (VOBL)

Arrival

Time N/A
Airport Chennai International Airport (VOMM)
Time Latitude Longitude Altitude Speed Heading
2026-04-29 08:39 13.20323 77.72016 3004 ft 0 kts
2026-04-29 08:44 13.20324 77.72016 3004 ft 0 kts
2026-04-29 08:44 13.20323 77.72016 3004 ft 0 kts
2026-04-29 08:44 13.20309 77.72016 3004 ft 2 kts
2026-04-29 08:44 13.20294 77.72016 3004 ft 2 kts
2026-04-29 08:45 13.20279 77.72016 3004 ft 2 kts
2026-04-29 08:45 13.20264 77.72015 3004 ft 2 kts 17°
2026-04-29 08:45 13.20252 77.72007 3004 ft 2 kts 57°
2026-04-29 08:45 13.20248 77.71995 3004 ft 1 kts 90°
2026-04-29 08:46 13.20248 77.71993 3004 ft 0 kts 91°
2026-04-29 08:47 13.20248 77.72033 3004 ft 9 kts 90°
2026-04-29 08:47 13.20274 77.72110 3004 ft 15 kts 18°
2026-04-29 08:48 13.20376 77.72113 3004 ft 16 kts
2026-04-29 08:48 13.20492 77.72126 3004 ft 17 kts 41°
2026-04-29 08:48 13.20551 77.72200 3004 ft 14 kts
2026-04-29 08:48 13.20627 77.72200 3004 ft 12 kts
2026-04-29 08:49 13.20685 77.72148 3004 ft 17 kts 272°
2026-04-29 08:49 13.20688 77.71812 3004 ft 87 kts 270°
2026-04-29 08:49 13.20695 77.70948 3006 ft 149 kts 270°
2026-04-29 08:49 13.20757 77.69835 3310 ft 162 kts 274°
2026-04-29 08:50 13.20889 77.68645 3722 ft 175 kts 277°
2026-04-29 08:50 13.21013 77.67355 4132 ft 188 kts 271°
2026-04-29 08:50 13.21151 77.65940 4512 ft 203 kts 272°
2026-04-29 08:50 13.20794 77.64556 5053 ft 206 kts 236°
2026-04-29 08:51 13.19730 77.63601 5569 ft 208 kts 205°
2026-04-29 08:51 13.18317 77.63364 6113 ft 206 kts 169°
2026-04-29 08:51 13.17091 77.64002 6618 ft 201 kts 129°
2026-04-29 08:51 13.16540 77.65310 7165 ft 199 kts 102°
2026-04-29 08:52 13.16263 77.66695 7740 ft 201 kts 100°
2026-04-29 08:52 13.16008 77.68106 8249 ft 205 kts 99°
2026-04-29 08:52 13.15769 77.69555 8819 ft 206 kts 98°
2026-04-29 08:52 13.15545 77.70990 9368 ft 207 kts 98°
2026-04-29 08:53 13.15323 77.72458 9908 ft 209 kts 98°
2026-04-29 08:53 13.15111 77.73921 10452 ft 211 kts 97°
2026-04-29 08:53 13.14880 77.75425 10880 ft 221 kts 99°
2026-04-29 08:53 13.14599 77.77097 10954 ft 247 kts 97°
2026-04-29 08:54 13.14386 77.78796 11752 ft 236 kts 96°
2026-04-29 08:54 13.14176 77.80462 12293 ft 239 kts 96°
2026-04-29 08:54 13.13961 77.82139 12928 ft 238 kts 96°
2026-04-29 08:54 13.13742 77.83843 13417 ft 243 kts 96°
2026-04-29 08:55 13.13519 77.85560 13963 ft 246 kts 96°
2026-04-29 08:55 13.13292 77.87295 14503 ft 249 kts 96°
2026-04-29 08:55 13.13059 77.89067 15046 ft 252 kts 96°
2026-04-29 08:55 13.12824 77.90849 15611 ft 254 kts 96°
2026-04-29 08:56 13.12584 77.92670 16135 ft 259 kts 96°
2026-04-29 08:56 13.12340 77.94511 16724 ft 261 kts 96°
2026-04-29 08:56 13.12097 77.96350 17253 ft 265 kts 96°
2026-04-29 08:56 13.11845 77.98251 17799 ft 269 kts 96°